Location: AUGO Fort Vermillion
(58.3775°N, 116.0058°W)
Time: 00:58:12
(UTC-07:00)

ISS - Visible Passes

Search period start: 17 December 2018 00:00
Search period end: 27 December 2018 00:00
Orbit: 401 x 408 km, 51.6° (Epoch: 18 December)

Date Brightness Start Highest point End Pass type
(mag) Time Alt. Az. Time Alt. Az. Time Alt. Az.
24 Dec -0.6 08:15:37 10° S 08:17:20 14° SSE 08:19:04 10° ESE visible
25 Dec -0.2 07:25:18 10° SSE 07:25:21 10° SSE 07:25:24 10° SSE visible
26 Dec -1.0 08:06:32 10° SSW 08:08:53 18° SSE 08:11:15 10° ESE visible
